CW8443 Weather Reports


Display with metric or nautical units.
time (UTC)temp
F
wind
direction
speed
MPH
gust
MPH
rain 1hr
in
rain 24hr
in
rain mn
in
humidity
%
barometer
mb
20260904133139 69 7 0.0 0.0 0.00 0.00 0.19 88 1009.0
20260904132739 69 11 0.0 0.0 0.00 0.00 0.18 88 1008.7
20260904132252 70 11 0.0 0.0 0.00 0.00 0.18 88 1008.8
20260904131236 70 12 0.0 0.0 0.00 0.00 0.18 88 1008.9
20260904130753 70 11 0.0 0.0 0.00 0.00 0.17 87 1008.9
20260904130245 70 11 0.0 0.0 0.00 0.00 0.17 87 1008.9
20260904125244 70 11 0.0 0.0 0.00 0.00 0.17 87 1008.4
20260904124739 70 11 0.0 0.0 0.00 0.00 0.17 87 1008.4
20260904124251 70 11 0.0 0.0 0.00 0.00 0.16 87 1009.1
20260904123241 70 11 0.0 0.0 0.00 0.00 0.15 87 1009.1
20260904123145 70 11 0.0 0.0 0.00 0.00 0.15 87 1009.1
20260904122746 70 11 0.0 0.0 0.00 0.00 0.15 87 1008.7
20260904121735 70 11 0.0 0.0 0.00 0.00 0.14 86 1008.7
20260904121242 70 11 0.0 0.0 0.00 0.00 0.14 86 1008.8
20260904120738 70 11 0.0 0.0 0.00 0.00 0.14 86 1008.8
20260904120255 70 11 0.0 0.0 0.00 0.00 0.14 86 1008.8
20260904120138 70 11 0.0 0.0 0.00 0.00 0.14 86 1008.8
20260904115736 70 11 0.0 0.0 0.00 0.00 0.14 86 1009.0
20260904115245 71 12 0.0 0.0 0.00 0.00 0.13 86 1009.0
20260904114739 71 14 0.0 0.0 0.00 0.00 0.13 86 1009.0
20260904114251 71 14 0.0 0.0 0.00 0.00 0.13 86 1009.0
20260904113738 71 12 0.0 0.0 0.00 0.00 0.12 86 1009.0
20260904113236 72 12 0.0 0.0 0.00 0.00 0.12 86 1009.0
20260904113139 72 11 0.0 0.0 0.00 0.00 0.12 86 1009.0
20260904112736 72 12 0.0 0.0 0.00 0.00 0.12 86 1008.9
20260904112250 72 12 0.0 0.0 0.00 0.00 0.11 86 1008.9
20260904111739 72 12 0.0 0.0 0.00 0.00 0.11 85 1008.9
20260904111250 72 12 0.0 0.0 0.00 0.00 0.11 85 1009.1
20260904110741 71 12 0.0 0.0 0.00 0.00 0.10 84 1009.1
20260904110238 72 12 0.0 0.0 0.00 0.00 0.09 84 1009.1
20260904110142 72 11 0.0 0.0 0.00 0.00 0.09 84 1009.1
20260904105741 72 11 0.0 0.0 0.00 0.00 0.09 85 1009.0
20260904104238 73 12 0.0 0.0 0.00 0.00 0.09 85 1008.0
20260904103751 73 11 0.0 0.0 0.00 0.00 0.09 85 1008.0
20260904103252 73 11 0.0 0.0 0.00 0.00 0.09 85 1008.0
20260904102738 73 12 0.0 0.0 0.00 0.00 0.09 85 1008.0
20260904102252 73 11 0.0 0.0 0.00 0.00 0.09 84 1008.0
20260904101744 73 12 0.0 0.0 0.00 0.00 0.09 84 1008.0
20260904101256 73 12 0.0 0.0 0.00 0.00 0.08 84 1007.8
20260904100749 73 12 0.0 0.0 0.00 0.00 0.08 84 1007.8
20260904100245 74 12 0.0 0.0 0.00 0.00 0.08 83 1007.8
20260904100128 74 12 0.0 0.0 0.00 0.00 0.08 83 1007.8
20260904095239 74 12 0.0 0.0 0.00 0.00 0.07 83 1008.0
20260904094755 74 12 0.0 0.0 0.00 0.00 0.06 82 1008.0
20260904094243 74 12 0.0 0.0 0.00 0.00 0.06 82 1007.5
20260904093754 74 11 0.0 0.0 0.00 0.00 0.06 82 1007.5
20260904093251 74 11 0.0 0.0 0.00 0.00 0.06 82 1007.5
20260904093136 74 12 0.0 0.0 0.00 0.00 0.06 81 1007.5
20260904092739 74 12 0.0 0.0 0.00 0.00 0.06 81 1006.9
20260904092253 74 26 0.0 0.0 0.00 0.00 0.06 81 1006.9
20260904091746 74 26 0.0 0.0 0.00 0.00 0.06 81 1006.9
20260904091239 74 26 0.0 0.0 0.00 0.00 0.06 80 1006.9
20260904090751 74 26 0.0 0.0 0.00 0.00 0.06 80 1006.9
20260904090251 74 26 0.0 0.0 0.00 0.00 0.06 79 1006.9
20260904090135 74 26 0.0 0.0 0.00 0.00 0.06 79 1006.9
20260904085250 74 26 0.0 0.0 0.00 0.00 0.05 79 1007.0
20260904084742 74 26 0.0 0.0 0.00 0.00 0.05 79 1007.0
20260904084255 74 26 0.0 0.0 0.00 0.00 0.05 79 1006.8
20260904083743 75 26 0.0 0.0 0.00 0.00 0.05 79 1006.8
20260904083130 75 26 0.0 0.0 0.00 0.00 0.05 79 1006.8
20260904082750 75 26 0.0 0.0 0.00 0.00 0.05 79 1007.2
20260904082238 75 26 0.0 0.0 0.00 0.00 0.05 79 1007.2
20260904081748 75 35 0.0 0.0 0.00 0.00 0.05 79 1007.2
20260904081237 75 36 0.0 0.0 0.00 0.00 0.05 78 1006.9
20260904080753 75 36 0.0 0.0 0.00 0.00 0.05 78 1006.9
20260904080253 75 35 0.0 0.0 0.00 0.00 0.05 78 1006.9
20260904080137 75 36 0.0 0.0 0.00 0.00 0.05 78 1006.9
20260904075738 75 36 0.0 0.0 0.00 0.00 0.05 78 1006.9
20260904075251 75 35 0.0 0.0 0.00 0.00 0.05 77 1006.9
20260904074744 75 36 0.0 0.0 0.00 0.00 0.05 77 1006.9
20260904074256 75 35 0.0 0.0 0.00 0.00 0.05 77 1006.7
20260904073743 75 35 0.0 0.0 0.00 0.00 0.05 77 1006.7
20260904073239 75 36 0.0 0.0 0.00 0.00 0.05 77 1006.7
20260904073143 75 36 0.0 0.0 0.00 0.00 0.05 77 1006.7
20260904072740 75 35 0.0 0.0 0.00 0.00 0.05 78 1006.9
20260904072248 75 35 0.0 0.0 0.00 0.00 0.05 77 1006.9
20260904071742 75 35 0.0 0.0 0.00 0.00 0.05 77 1006.9
20260904071255 75 35 0.0 0.0 0.00 0.00 0.05 77 1007.0
20260904070748 75 35 0.0 0.0 0.00 0.00 0.05 77 1007.0
20260904070245 75 36 0.0 0.0 0.00 0.00 0.05 77 1007.0
20260904070128 75 36 0.0 0.0 0.00 0.00 0.05 77 1007.0
20260904065752 75 36 0.0 0.0 0.00 0.00 0.05 77 1007.0
20260904065240 76 35 0.0 0.0 0.00 0.00 0.05 77 1007.0
20260904064756 76 350 0.0 0.0 0.00 0.00 0.05 77 1007.0
20260904064244 76 350 0.0 0.0 0.00 0.00 0.05 76 1007.1
20260904063755 76 350 0.0 0.0 0.00 0.00 0.05 75 1007.1
20260904063247 76 348 0.0 0.0 0.00 0.00 0.05 75 1007.1
20260904063135 76 350 0.0 0.0 0.00 0.00 0.05 75 1007.1
20260904062755 76 350 0.0 0.0 0.00 0.00 0.05 75 1006.9
20260904062245 76 348 0.0 0.0 0.00 0.00 0.04 74 1006.9
20260904061738 76 350 0.0 0.0 0.00 0.00 0.04 74 1006.9
20260904061252 76 350 0.0 0.0 0.00 0.00 0.04 74 1006.4
20260904060752 76 350 0.0 0.0 0.00 0.00 0.04 73 1006.4
20260904060253 76 351 0.0 0.0 0.00 0.00 0.04 72 1006.4
20260904060137 76 351 0.0 0.0 0.00 0.00 0.04 72 1006.4
20260904055736 77 351 0.0 0.0 0.00 0.00 0.04 73 1006.4
20260904055244 77 350 0.0 0.0 0.00 0.00 0.04 72 1006.4
20260904054737 77 353 0.0 0.0 0.00 0.00 0.03 71 1006.4
20260904054244 77 353 0.0 0.0 0.00 0.00 0.03 71 1006.4
20260904053254 77 353 0.0 0.0 0.00 0.00 0.03 70 1006.4
20260904053138 77 354 0.0 0.0 0.00 0.00 0.03 71 1006.4
20260904052740 77 353 0.0 0.0 0.00 0.00 0.03 70 1007.0
20260904052248 77 353 0.0 0.0 0.00 0.00 0.03 69 1007.0
20260904051742 77 353 0.0 0.0 0.00 0.00 0.03 68 1007.0
20260904050753 77 354 0.0 0.0 0.00 0.00 0.03 67 1007.1
20260904050249 77 355 0.0 0.0 0.00 0.00 0.03 67 1007.1
20260904050132 77 355 0.0 0.0 0.00 0.00 0.03 67 1007.1
20260904045752 78 355 0.0 0.0 0.00 0.00 0.03 67 1007.4
20260904045240 78 358 0.0 0.0 0.00 0.00 0.03 67 1007.4
20260904044755 78 358 0.0 0.0 0.00 0.00 0.03 67 1007.4
20260904044243 78 5 0.0 0.0 0.00 0.00 0.03 68 1006.1
20260904043756 78 8 0.0 0.0 0.00 0.00 0.03 68 1006.1
20260904043256 78 12 1.0 0.0 0.00 0.00 0.03 68 1006.1
20260904042742 78 347 2.0 0.0 0.00 0.00 0.03 68 1006.1
20260904041244 78 14 1.0 0.0 0.00 0.00 0.03 67 1006.7
20260904040739 78 5 0.0 0.0 0.00 0.00 0.03 68 1006.7
20260904040252 78 12 0.0 0.0 0.00 0.00 0.03 69 1006.7
20260904035255 77 357 0.0 0.0 0.00 0.00 0.03 69 1006.7
20260904034749 77 358 0.0 0.0 0.00 0.00 0.03 70 1006.7
20260904034238 77 336 0.0 0.0 0.00 0.00 0.03 71 1006.8
20260904033751 77 322 0.0 0.0 0.00 0.00 0.03 72 1006.8
20260904033250 77 326 0.0 0.0 0.00 0.00 0.03 72 1006.8
20260904033133 77 354 0.0 0.0 0.00 0.00 0.03 73 1006.8
20260904032244 76 358 0.0 0.0 0.00 0.00 0.03 74 1006.8
20260904031738 76 2 0.0 0.0 0.00 0.00 0.03 76 1006.8
20260904031249 76 50 0.0 0.0 0.00 0.00 0.03 76 1007.1
20260904030745 76 62 0.0 0.0 0.00 0.00 0.03 77 1007.1
20260904030134 75 302 1.0 0.0 0.00 0.00 0.03 78 1007.1
20260904025736 75 306 2.0 0.0 0.00 0.00 0.03 78 1006.8
20260904025245 75 330 2.0 0.0 0.00 0.00 0.03 78 1006.8
20260904024737 75 337 1.0 0.0 0.00 0.00 0.03 78 1006.8
20260904024241 75 331 0.0 0.0 0.00 0.00 0.03 78 1007.0
20260904023750 75 333 0.0 0.0 0.00 0.00 0.03 78 1007.0
20260904013255 74 333 0.0 0.0 0.00 0.00 0.03 83 1008.0
20260904013139 74 333 0.0 0.0 0.00 0.00 0.03 83 1008.0
20260904012248 73 333 0.0 0.0 0.00 0.00 0.03 84 1007.7
20260904011739 73 333 0.0 0.0 0.00 0.00 0.03 84 1007.7
20260904011247 73 333 0.0 0.0 0.00 0.00 0.03 84 1008.0
20260904010738 73 331 0.0 0.0 0.00 0.00 0.03 84 1008.0
20260904010235 73 329 0.0 0.0 0.00 0.00 0.03 84 1008.0
20260904010140 73 331 0.0 0.0 0.00 0.00 0.03 84 1008.0
20260904005740 73 329 0.0 0.0 0.00 0.00 0.03 85 1008.4
20260903222252 72 327 0.0 0.0 0.00 0.00 0.02 86 1007.6
20260903221740 72 327 0.0 0.0 0.00 0.00 0.02 86 1007.6
20260903221244 72 326 0.0 0.0 0.00 0.00 0.01 86 1007.5
20260903220144 72 327 0.0 0.0 0.00 0.00 0.01 86 1007.5
20260903215742 72 327 0.0 0.0 0.00 0.00 0.01 86 1007.8
20260903215253 72 327 0.0 0.0 0.00 0.00 0.01 86 1007.8
20260903214742 72 326 0.0 0.0 0.00 0.00 0.01 86 1007.8
20260903213258 72 326 0.0 0.0 0.00 0.00 0.01 85 1007.7
20260903212740 72 326 0.0 0.0 0.00 0.00 0.01 85 1007.4
20260903212243 72 326 0.0 0.0 0.00 0.00 0.01 85 1007.4
20260903211241 73 336 0.0 0.0 0.00 0.00 0.01 85 1007.2
20260903210756 73 326 0.0 0.0 0.00 0.00 0.01 84 1007.2
20260903210244 73 326 0.0 0.0 0.00 0.00 0.01 84 1007.2
20260903210128 73 327 0.0 0.0 0.00 0.00 0.01 84 1007.2
20260903205744 73 350 0.0 0.0 0.00 0.00 0.00 84 1006.9
20260903205240 73 336 0.0 0.0 0.00 0.00 0.00 84 1006.9
20260903203246 73 358 0.0 0.0 0.00 0.00 0.00 84 1006.5
20260903203132 73 357 0.0 0.0 0.00 0.00 0.00 85 1006.5
20260903202241 73 357 0.0 0.0 0.00 0.00 0.00 85 1006.4
20260903201753 73 358 0.0 0.0 0.00 0.00 0.00 85 1006.4
20260903201239 73 357 0.0 0.0 0.00 0.00 0.00 85 1006.2
20260903200745 73 358 0.0 0.0 0.00 0.00 0.00 85 1006.2
20260903200145 73 357 0.0 0.0 0.00 0.00 0.00 84 1006.2
20260903195742 73 357 0.0 0.0 0.00 0.00 0.00 84 1006.3
20260903194741 73 358 0.0 0.0 0.00 0.00 0.00 84 1006.3
20260903193738 73 357 0.0 0.0 0.00 0.00 0.00 84 1005.9
20260903193247 73 357 0.0 0.0 0.00 0.00 0.00 84 1005.9
20260903192753 73 358 0.0 0.0 0.00 0.00 0.00 84 1005.8
20260903191753 73 358 0.0 0.0 0.00 0.00 0.00 83 1005.8
20260903191240 73 358 0.0 0.0 0.00 0.00 0.00 83 1005.7
20260903190751 73 358 0.0 0.0 0.00 0.00 0.00 83 1005.7
20260903190248 73 357 0.0 0.0 0.00 0.00 0.00 83 1005.7
20260903190132 73 358 0.0 0.0 0.00 0.00 0.00 83 1005.7
20260903185747 73 358 0.0 0.0 0.00 0.00 0.00 83 1005.1
20260903185237 73 357 0.0 0.0 0.00 0.00 0.00 83 1005.1
20260903184753 73 357 0.0 0.0 0.00 0.00 0.00 83 1005.1
20260903184240 73 358 0.0 0.0 0.00 0.00 0.00 83 1005.2
20260903183748 73 358 0.0 0.0 0.00 0.00 0.00 83 1005.2
20260903183242 73 358 0.0 0.0 0.00 0.00 0.00 83 1005.2
20260903182748 73 357 0.0 0.0 0.00 0.00 0.00 83 1005.5
20260903182237 73 358 0.0 0.0 0.00 0.00 0.00 83 1005.5
20260903181733 73 358 0.0 0.0 0.00 0.00 0.00 83 1005.5
20260903181242 73 358 0.0 0.0 0.00 0.00 0.00 83 1005.3
20260903180740 73 357 0.0 0.0 0.00 0.00 0.00 83 1005.3
20260903180255 73 358 0.0 0.0 0.00 0.00 0.00 83 1005.3
20260903174751 73 358 0.0 0.0 0.00 0.00 0.00 83 1005.4
20260903174238 73 358 0.0 0.0 0.00 0.00 0.00 83 1004.9
20260903173746 73 358 0.0 0.0 0.00 0.00 0.00 83 1004.9
20260903173131 73 357 0.0 0.0 0.00 0.00 0.00 82 1004.9
20260903172749 73 358 0.0 0.0 0.00 0.00 0.00 82 1005.2
20260903172235 73 357 0.0 0.0 0.00 0.00 0.00 82 1005.2
20260903171243 73 358 0.0 0.0 0.00 0.00 0.00 82 1005.1
20260903170128 73 358 0.0 0.0 0.00 0.00 0.00 82 1005.1
20260903165747 73 358 0.0 0.0 0.00 0.00 0.00 82 1005.2
20260903165235 73 358 0.0 0.0 0.00 0.00 0.00 82 1005.2
20260903164743 73 358 0.0 0.0 0.00 0.00 0.00 82 1005.2
20260903164250 73 358 0.0 0.0 0.00 0.00 0.00 82 1005.5
20260903163128 73 358 0.0 0.0 0.00 0.00 0.00 82 1005.5
20260903162749 73 360 0.0 0.0 0.00 0.00 0.00 82 1005.0
20260903162237 73 358 0.0 0.0 0.00 0.00 0.00 82 1005.0
20260903161748 73 358 0.0 0.0 0.00 0.00 0.00 81 1005.0
20260903161236 73 358 0.0 0.0 0.00 0.00 0.00 81 1005.2
20260903160748 73 358 0.0 0.0 0.00 0.00 0.00 81 1005.2
20260903160240 73 358 0.0 0.0 0.00 0.00 0.00 81 1005.2
20260903160128 73 358 0.0 0.0 0.00 0.00 0.00 81 1005.2
20260903155745 73 358 0.0 0.0 0.00 0.00 0.00 81 1005.3
20260903155235 73 358 0.0 0.0 0.00 0.00 0.00 81 1005.3
20260903154749 73 360 0.0 0.0 0.00 0.00 0.00 81 1005.3
20260903154238 73 358 0.0 0.0 0.00 0.00 0.00 81 1005.3
20260903153747 73 360 0.0 0.0 0.00 0.00 0.00 80 1005.3
20260903153246 74 1 0.0 0.0 0.00 0.00 0.00 80 1005.3
20260903153130 74 1 0.0 0.0 0.00 0.00 0.00 80 1005.3
20260903152755 74 1 0.0 0.0 0.00 0.00 0.00 80 1005.5
20260903151744 74 357 0.0 0.0 0.00 0.00 0.00 78 1005.5
20260903151250 74 350 0.0 0.0 0.00 0.00 0.00 77 1005.4
20260903150746 75 341 1.0 0.0 0.00 0.00 0.00 77 1005.4
20260903150245 75 324 1.0 0.0 0.00 0.00 0.00 75 1005.4
20260903150128 75 334 1.0 0.0 0.00 0.00 0.00 74 1005.4
20260903145244 76 331 0.0 0.0 0.00 0.00 0.00 71 1005.0
20260903144739 76 166 0.0 0.0 0.00 0.00 0.00 70 1005.0
20260903144253 76 166 0.0 0.0 0.00 0.00 0.00 70 1004.9
20260903143742 76 166 0.0 0.0 0.00 0.00 0.00 70 1004.9
20260903143243 76 166 0.0 0.0 0.00 0.00 0.00 70 1004.9
20260903143147 76 166 0.0 0.0 0.00 0.00 0.00 70 1004.9
20260903142745 76 166 0.0 0.0 0.00 0.00 0.00 70 1004.9
20260903141749 76 178 1.0 0.0 0.00 0.00 0.00 69 1004.9
20260903141237 76 176 1.0 0.0 0.00 0.00 0.00 69 1005.0
20260903140753 76 187 1.0 0.0 0.00 0.00 0.00 69 1005.0
20260903140253 76 206 0.0 0.0 0.00 0.00 0.00 70 1005.0
20260903135738 76 207 1.0 0.0 0.00 0.00 0.00 70 1005.0
20260903135246 76 213 1.0 0.0 0.00 0.00 0.00 70 1005.0
20260903134739 76 220 0.0 0.0 0.00 0.00 0.00 70 1005.0
20260903133736 75 186 1.0 0.0 0.00 0.00 0.00 70 1005.2
20260903133253 75 173 2.0 0.0 0.00 0.00 0.00 71 1005.2
20260903132742 75 154 1.0 0.0 0.00 0.00 0.00 71 1005.4
20260903132254 75 168 0.0 0.0 0.00 0.00 0.00 71 1005.4
20260903131749 75 176 0.0 0.0 0.00 0.00 0.00 72 1005.4
20260903131238 75 176 0.0 0.0 0.00 0.00 0.00 72 1005.9
20260903130748 75 173 0.0 0.0 0.00 0.00 0.00 72 1005.9
20260903130247 75 172 0.0 0.0 0.00 0.00 0.00 72 1005.9
20260903125250 75 172 1.0 0.0 0.00 0.00 0.00 72 1006.1
20260903124750 75 165 2.0 0.0 0.00 0.00 0.00 71 1006.1
20260903124239 75 142 2.0 0.0 0.00 0.00 0.00 71 1006.4
20260903123750 75 172 1.0 0.0 0.00 0.00 0.00 71 1006.4
20260903123245 75 139 1.0 0.0 0.00 0.00 0.00 71 1006.4
20260903123128 75 151 1.0 0.0 0.00 0.00 0.00 71 1006.4
20260903122243 76 142 0.0 0.0 0.00 0.00 0.00 70 1007.0
20260903121737 76 142 0.0 0.0 0.00 0.00 0.00 69 1007.0
20260903121245 76 142 0.0 0.0 0.00 0.00 0.00 70 1007.3
20260903120735 76 142 0.0 0.0 0.00 0.00 0.00 70 1007.3
20260903120139 76 142 0.0 0.0 0.00 0.00 0.00 69 1007.3
20260903115739 76 142 0.0 0.0 0.00 0.00 0.00 69 1007.4
20260903115250 76 142 0.0 0.0 0.00 0.00 0.00 69 1007.4
20260903114741 76 142 0.0 0.0 0.00 0.00 0.00 69 1007.4
20260903113243 75 142 0.0 0.0 0.00 0.00 0.00 69 1007.2
20260903113126 75 142 0.0 0.0 0.00 0.00 0.00 69 1007.2
20260903112741 75 142 0.0 0.0 0.00 0.00 0.00 69 1006.9
20260903112248 76 42 0.0 0.0 0.00 0.00 0.00 70 1006.9
20260903111740 76 41 0.0 0.0 0.00 0.00 0.00 70 1006.9
20260903111254 75 41 0.0 0.0 0.00 0.00 0.00 70 1006.8
20260903110254 75 355 0.0 0.0 0.00 0.00 0.00 70 1006.8
20260903110138 75 357 0.0 0.0 0.00 0.00 0.00 70 1006.8
20260903105740 75 357 0.0 0.0 0.00 0.00 0.00 70 1006.8
20260903105253 75 357 0.0 0.0 0.00 0.00 0.00 70 1006.8
20260903104747 75 357 0.0 0.0 0.00 0.00 0.00 70 1006.8
20260903103744 75 357 0.0 0.0 0.00 0.00 0.00 70 1006.5
20260903103251 75 357 0.0 0.0 0.00 0.00 0.00 70 1006.5
20260903103135 75 357 0.0 0.0 0.00 0.00 0.00 70 1006.5
20260903102735 75 357 0.0 0.0 0.00 0.00 0.00 70 1006.4
20260903102245 75 357 0.0 0.0 0.00 0.00 0.00 70 1006.4
20260903101739 75 357 0.0 0.0 0.00 0.00 0.00 70 1006.4
20260903101253 75 357 0.0 0.0 0.00 0.00 0.00 70 1006.2
20260903100753 75 357 0.0 0.0 0.00 0.00 0.00 70 1006.2
20260903100253 75 357 0.0 0.0 0.00 0.00 0.00 70 1006.2
20260903100137 75 357 0.0 0.0 0.00 0.00 0.00 70 1006.2
20260903094748 75 357 0.0 0.0 0.00 0.00 0.00 70 1006.4
20260903094238 75 357 0.0 0.0 0.00 0.00 0.00 70 1006.4
20260903093751 75 357 0.0 0.0 0.00 0.00 0.00 70 1006.4
20260903093139 75 357 0.0 0.0 0.00 0.00 0.00 69 1006.4
20260903092740 75 357 0.0 0.0 0.00 0.00 0.00 69 1006.4
20260903092252 76 358 0.0 0.0 0.00 0.00 0.00 69 1006.4
20260903091750 76 357 0.0 0.0 0.00 0.00 0.00 69 1006.4
20260903090744 76 354 0.0 0.0 0.00 0.00 0.00 68 1005.9
20260903090238 76 25 0.0 0.0 0.00 0.00 0.00 68 1005.9
20260903090142 76 25 0.0 0.0 0.00 0.00 0.00 68 1005.9
20260903085746 76 15 0.0 0.0 0.00 0.00 0.00 68 1006.7
20260903085235 76 15 0.0 0.0 0.00 0.00 0.00 68 1006.7
20260903084753 76 1 0.0 0.0 0.00 0.00 0.00 68 1006.7
20260903084243 76 1 0.0 0.0 0.00 0.00 0.00 68 1006.5
20260903083735 76 10 0.0 0.0 0.00 0.00 0.00 67 1006.5
20260903083255 76 8 1.0 0.0 0.00 0.00 0.00 67 1006.5
20260903083139 76 21 1.0 0.0 0.00 0.00 0.00 67 1006.5
20260903082739 76 28 1.0 0.0 0.00 0.00 0.00 66 1007.0
20260903082251 76 19 1.0 0.0 0.00 0.00 0.00 66 1007.0
20260903081239 77 341 0.0 0.0 0.00 0.00 0.00 65 1007.7
20260903080752 77 331 0.0 0.0 0.00 0.00 0.00 64 1007.7
20260903080253 77 324 0.0 0.0 0.00 0.00 0.00 65 1007.7
20260903080138 77 323 0.0 0.0 0.00 0.00 0.00 65 1007.7
20260903075739 77 324 0.0 0.0 0.00 0.00 0.00 64 1007.4
20260903075253 77 326 0.0 0.0 0.00 0.00 0.00 65 1007.4
20260903074750 77 327 1.0 0.0 0.00 0.00 0.00 64 1007.4
20260903074238 77 310 3.0 0.0 0.00 0.00 0.00 64 1005.7
20260903073753 77 22 3.0 0.0 0.00 0.00 0.00 64 1005.7
20260903073254 77 59 3.0 0.0 0.00 0.00 0.00 64 1005.7
20260903073138 77 38 3.0 0.0 0.00 0.00 0.00 64 1005.7
20260903072738 77 46 2.0 0.0 0.00 0.00 0.00 64 1007.5
20260903072252 78 15 2.0 0.0 0.00 0.00 0.00 65 1007.5
20260903071745 78 341 2.0 0.0 0.00 0.00 0.00 65 1007.5
20260903071237 78 333 2.0 0.0 0.00 0.00 0.00 66 1007.5
20260903070751 78 14 2.0 0.0 0.00 0.00 0.00 66 1007.5
20260903070254 78 31 1.0 0.0 0.00 0.00 0.00 66 1007.5
20260903065740 78 360 1.0 0.0 0.00 0.00 0.00 66 1008.1
20260903064750 78 306 1.0 0.0 0.00 0.00 0.00 67 1008.1
20260903064238 78 34 3.0 0.0 0.00 0.00 0.00 66 1007.6
20260903063752 78 21 5.0 0.0 0.00 0.00 0.00 66 1007.6
20260903063247 78 39 5.0 0.0 0.00 0.00 0.00 65 1007.6
20260903063132 78 323 6.0 0.0 0.00 0.00 0.00 64 1007.6
20260903062748 79 17 6.0 0.0 0.00 0.00 0.00 64 1007.4
20260903062239 80 14 5.0 0.0 0.00 0.00 0.00 65 1007.4
20260903061251 81 11 4.0 0.0 0.00 0.00 0.00 66 1005.4
20260903060751 81 316 4.0 0.0 0.00 0.00 0.00 65 1005.4
20260903060248 82 333 3.0 0.0 0.00 0.00 0.00 65 1005.4
20260903060132 82 49 2.0 0.0 0.00 0.00 0.00 65 1005.4
20260903055239 83 333 1.0 0.0 0.00 0.00 0.00 68 1006.6
20260903053204 83 344 1.0 0.0 0.00 0.00 0.00 68 1006.6
20260903052233 84 331 0.0 0.0 0.00 0.00 0.00 68 1006.5
20260903051749 84 320 0.0 0.0 0.00 0.00 0.00 68 1006.5
20260903040748 85 333 2.0 0.0 0.00 0.00 0.00 65 1005.3
20260903040138 85 355 2.0 0.0 0.00 0.00 0.00 65 1005.3
20260903035740 85 29 2.0 0.0 0.00 0.00 0.00 62 1006.6
20260903035248 85 322 2.0 0.0 0.00 0.00 0.00 62 1006.6
20260903034741 86 299 0.0 0.0 0.00 0.00 0.00 62 1006.6
20260903034252 86 326 0.0 0.0 0.00 0.00 0.00 60 1006.5
20260903033742 86 324 0.0 0.0 0.00 0.00 0.00 60 1006.5
20260903033240 86 310 0.0 0.0 0.00 0.00 0.00 60 1006.5
20260903033144 87 310 0.0 0.0 0.00 0.00 0.00 60 1006.5
20260903032745 87 327 0.0 0.0 0.00 0.00 0.00 60 1006.4
20260903031235 86 21 0.0 0.0 0.00 0.00 0.00 59 1006.2
20260903030735 86 22 0.0 0.0 0.00 0.00 0.00 59 1006.2
20260903030250 86 29 0.0 0.0 0.00 0.00 0.00 59 1006.2
20260903025740 86 34 0.0 0.0 0.00 0.00 0.00 59 1006.2
20260903024751 86 31 0.0 0.0 0.00 0.00 0.00 60 1006.2
20260903024241 86 31 0.0 0.0 0.00 0.00 0.00 61 1006.4
20260903023750 85 31 0.0 0.0 0.00 0.00 0.00 60 1006.4
20260903023249 86 31 0.0 0.0 0.00 0.00 0.00 61 1006.4
20260903023132 86 31 0.0 0.0 0.00 0.00 0.00 60 1006.4
20260903022249 86 34 0.0 0.0 0.00 0.00 0.00 59 1006.3
20260903021739 86 34 0.0 0.0 0.00 0.00 0.00 59 1006.3
20260903021251 86 34 0.0 0.0 0.00 0.00 0.00 60 1006.5
20260903020744 86 32 0.0 0.0 0.00 0.00 0.00 60 1006.5
20260903020248 86 32 0.0 0.0 0.00 0.00 0.00 62 1006.5
20260903020132 86 32 0.0 0.0 0.00 0.00 0.00 61 1006.5
20260903015735 85 32 0.0 0.0 0.00 0.00 0.00 61 1006.5
20260903015245 85 31 0.0 0.0 0.00 0.00 0.00 62 1006.5
20260903014739 85 26 0.0 0.0 0.00 0.00 0.00 62 1006.5
20260903014250 85 19 0.0 0.0 0.00 0.00 0.00 61 1006.5
20260903013740 85 2 0.0 0.0 0.00 0.00 0.00 62 1006.5